User: anonymous   Login
Location: Hungerford
(51.4167°N, 1.5167°W)
Time: 05:20:02
(UTC+00:00)
Language:

Cosmos 2180 Rocket - Orbit

View from above orbital plane
View from above orbital plane
View from above satellite
View from above satellite

Ground track
Ground track

The orbit data is extracted from the following two-line orbital elements,

1 21876U 92008B   20333.55872462 +.00000063 +00000-0 +49438-4 0  9994
2 21876 082.9274 260.4312 0035979 114.5802 058.4503 13.75668920444431
Epoch (UTC): 28 November 2020 13:24:33
Eccentricity: 0.0035979
inclination: 82.9274°
perigee height: 953 km
apogee height: 1006 km
right ascension of ascending node: 260.4312°
argument of perigee: 114.5802°
revolutions per day: 13.75668920
mean anomaly at epoch: 58.4503°
orbit number at epoch: 44443

The dashed part of the orbit path shows where the satellite is in the earth's shadow,  

DLR